Location: Burla
(50.9568°N, 10.4983°E)
Time: 05:30:39
(UTC+00:00)

Lacrosse 5 rocket - Pass Details

Date: 18 January 2026
Orbit: 400 x 481 km, 57.0° (Epoch: 17 February)

Event Time Altitude Azimuth Distance (km) Brightness Sun altitude
Exits shadow 05:22:23 27° 328° (NNW) 964 2.2 -16.7°
Maximum altitude 05:23:47 38° 14° (NNE) 765 2.0 -16.5°
Drops below altitude 10° 05:27:21 10° 84° (E) 1,681 4.9 -16.0°
Sets 05:29:37 0° 92° (E) 2,557 6.4 -15.6°
